This is the latest recevied weather packets stored in our database for station/object OK1FET-16. If no packets are shown the sender has not sent any weather packets the latest 10 day(s).
| Time | Temp. | Humidity | Pressure | Rain* | Wind** | Luminosity | Snow |
|---|---|---|---|---|---|---|---|
| 1787418204 | 13.33° C | 100% | 1018 hPa | - | - | - | - |
| 1787417664 | 13.33° C | 100% | 1017.8 hPa | - | - | - | - |
| 1787416855 | 12.78° C | 100% | 1017.7 hPa | - | - | - | - |
| 1787416045 | 13.89° C | 100% | 1017.6 hPa | - | - | - | - |
| 1787415775 | 15.56° C | 100% | 1017.7 hPa | - | - | - | - |
| 1787415505 | 15.56° C | 100% | 1017.6 hPa | - | - | - | - |
| 1787415235 | 15° C | 100% | 1017.6 hPa | - | - | - | - |
| 1787414965 | 15° C | 100% | 1017.6 hPa | - | - | - | - |
| 1787414156 | 15° C | 100% | 1017.6 hPa | - | - | - | - |
| 1787413346 | 14.44° C | 100% | 1017.4 hPa | - | - | - | - |
| 1787413076 | 14.44° C | 100% | 1017.4 hPa | - | - | - | - |
| 1787412806 | 14.44° C | 100% | 1017.4 hPa | - | - | - | - |
| 1787412536 | 13.33° C | 100% | 1017.3 hPa | - | - | - | - |
| 1787409567 | 13.89° C | 100% | 1016.8 hPa | - | - | - | - |
| 1787408488 | 13.89° C | 100% | 1016.8 hPa | - | - | - | - |
| 1787407408 | 14.44° C | 100% | 1016.8 hPa | - | - | - | - |
| 1787406328 | 13.33° C | 100% | 1016.8 hPa | - | - | - | - |
| 1787405518 | 15.56° C | 100% | 1016.7 hPa | - | - | - | - |
| 1787404439 | 13.33° C | 100% | 1016.6 hPa | - | - | - | - |
| 1787404169 | 13.33° C | 100% | 1016.5 hPa | - | - | - | - |
| 1787402280 | 12.78° C | 100% | 1016.1 hPa | - | - | - | - |
| 1787401200 | 13.89° C | 100% | 1015.9 hPa | - | - | - | - |
| 1787400390 | 13.33° C | 100% | 1015.8 hPa | - | - | - | - |
| 1787396884 | 11.67° C | 100% | 1015.2 hPa | - | - | - | - |
| 1787396614 | 11.67° C | 100% | 1015.1 hPa | - | - | - | - |
* Rain since midnight (hover to see other rain measurements)
** Current wind speed in m/s (hover to see current wind gust speed)